Ionia, MI

11:38 AM EST on February 24, 2017 (GMT -0500)
Ionia

Weather History for KY70 - February, 2013

Change the Weather History Date:

Tuesday, February 19, 2013

  Actual Average (KGRR) Record (KGRR)
Temperature  
Mean Temperature 33 °F -  
Max Temperature 46 °F 35 °F 62 °F (2017)
Min Temperature 20 °F 21 °F -15 °F (1978)
Degree Days  
Heating Degree Days 32    
Moisture  
Dew Point 22 °F    
Average Humidity 73    
Maximum Humidity 84    
Minimum Humidity 61    
Precipitation  
Precipitation 0.01 in - - ()
Sea Level Pressure  
Sea Level Pressure 29.63 in    
Wind  
Wind Speed 22 mph (WSW)    
Max Wind Speed 30 mph    
Max Gust Speed 39 mph    
Visibility 6 miles    
Events Rain , Snow    
Averages and records for this station are not official NWS values.
T = Trace of Precipitation, MM = Missing Value Source: NWS Daily Summary

Daily Weather History Graph

Daily Weather History Graph

Search for Another Location

Airport or City:

Trip Planner

Search our weather history database for the weather conditions in past years. The results will help you decide how hot, cold, wet, or windy it might be!

Date:

Astronomy

Feb. 19, 2013 Rise Set
Actual Time 7:31 AM EST 6:17 PM EST
Civil Twilight 7:02 AM EST 6:46 PM EST
Nautical Twilight 6:29 AM EST 7:19 PM EST
Astronomical Twilight 5:56 AM EST 7:51 PM EST
Moon 12:43 PM EST (2/19) 3:07 AM EST (2/19)
Length of Visible Light 11h 43m
Length of Day
10h 45m
Waxing Gibbous, 67% of the Moon is Illuminated
Feb 19
Waxing Gibbous
Feb 25
Full
Mar 4
Last Quarter
Mar 11
New
Mar 19
First Quarter

Hourly Weather History & Observations

Time (EST) Temp. Windchill Dew Point Humidity Pressure Visibility Wind Dir Wind Speed Gust Speed Precip Events Conditions
12:13 AM 46.4 °F 39.2 °F 38.8 °F 75% 29.44 in 10.0 mi South 18.4 mph 27.6 mph N/A   Drizzle
12:33 AM 46.6 °F - 39.0 °F 75% 29.43 in 10.0 mi South 24.2 mph 28.8 mph N/A   Drizzle
12:53 AM 46.6 °F - 39.2 °F 75% 29.42 in 7.0 mi South 20.7 mph 29.9 mph N/A Rain Light Rain
1:13 AM 46.6 °F - 39.6 °F 77% 29.40 in 10.0 mi South 20.7 mph 32.2 mph N/A Rain Light Rain
1:33 AM 46.8 °F - 39.4 °F 75% 29.38 in 10.0 mi South 23.0 mph 32.2 mph N/A Rain Light Rain
1:53 AM 46.8 °F - 39.2 °F 75% 29.37 in 10.0 mi South 23.0 mph 28.8 mph N/A Rain Rain
2:13 AM 46.4 °F 38.5 °F 39.4 °F 77% 29.36 in 10.0 mi SSW 21.9 mph 32.2 mph N/A Rain Rain
2:33 AM 46.2 °F 38.7 °F 39.6 °F 78% 29.35 in 10.0 mi SSW 19.6 mph 27.6 mph N/A Rain Light Rain
2:53 AM 44.4 °F 35.9 °F 37.2 °F 76% 29.36 in 7.0 mi WSW 21.9 mph 35.7 mph 0.01 in Rain Light Rain
3:13 AM 40.1 °F 29.2 °F 34.0 °F 79% 29.38 in 7.0 mi WSW 26.5 mph 33.4 mph N/A Rain Light Rain
3:33 AM 38.7 °F 27.8 °F 33.6 °F 82% 29.39 in 10.0 mi West 24.2 mph 28.8 mph N/A Rain Light Rain
3:53 AM 38.1 °F 27.9 °F 33.1 °F 82% 29.40 in 7.0 mi West 20.7 mph 35.7 mph N/A Snow Light Snow
4:13 AM 37.9 °F 27.9 °F 32.9 °F 82% 29.41 in 7.0 mi West 19.6 mph 31.1 mph N/A Snow Light Snow
4:33 AM 37.9 °F 28.2 °F 32.2 °F 80% 29.42 in 10.0 mi West 18.4 mph 33.4 mph N/A   Overcast
4:53 AM 37.6 °F 26.3 °F 32.0 °F 80% 29.43 in 10.0 mi West 24.2 mph 34.5 mph N/A   Overcast
5:13 AM 37.4 °F 25.4 °F 31.1 °F 78% 29.44 in 10.0 mi West 27.6 mph 38.0 mph N/A   Overcast
5:33 AM 36.7 °F 25.1 °F 30.7 °F 79% 29.45 in 10.0 mi West 24.2 mph 36.8 mph N/A   Overcast
5:53 AM 35.6 °F 23.7 °F 31.1 °F 84% 29.45 in 4.0 mi WSW 24.2 mph 32.2 mph N/A   Overcast
6:13 AM 34.7 °F 22.5 °F 30.2 °F 84% 29.47 in 5.0 mi WSW 24.2 mph 34.5 mph N/A   Overcast
6:53 AM 32.9 °F 19.3 °F 28.0 °F 82% 29.48 in 5.0 mi West 27.6 mph 35.7 mph N/A   Overcast
7:13 AM 32.2 °F 19.7 °F 27.3 °F 82% 29.49 in 5.0 mi WSW 21.9 mph 33.4 mph N/A   Overcast
7:33 AM 31.8 °F 18.1 °F 26.4 °F 80% 29.51 in 7.0 mi WSW 26.5 mph 33.4 mph N/A   Overcast
7:53 AM 31.1 °F 16.6 °F 25.3 °F 79% 29.52 in 7.0 mi WSW 28.8 mph 38.0 mph N/A   Overcast
8:13 AM 30.6 °F 16.2 °F 24.6 °F 79% 29.54 in 4.0 mi WSW 27.6 mph 36.8 mph N/A Snow Light Snow
8:33 AM 29.8 °F 15.5 °F 23.9 °F 79% 29.55 in 2.5 mi WSW 26.5 mph 35.7 mph N/A Snow Light Snow
8:53 AM 29.3 °F 14.5 °F 23.2 °F 78% 29.56 in 3.0 mi WSW 27.6 mph 33.4 mph N/A Snow Light Snow
9:13 AM 28.8 °F 14.3 °F 22.6 °F 78% 29.56 in 1.0 mi WSW 25.3 mph 33.4 mph N/A Snow Light Snow
9:33 AM 28.4 °F 14.1 °F 22.1 °F 77% 29.57 in 0.8 mi WSW 24.2 mph 33.4 mph N/A Snow Light Snow
9:53 AM 28.4 °F 12.7 °F 21.9 °F 77% 29.57 in 1.0 mi West 29.9 mph 34.5 mph N/A Snow Light Snow
10:33 AM 27.5 °F 12.6 °F 20.3 °F 74% 29.59 in 1.5 mi WSW 25.3 mph 33.4 mph N/A Snow Light Snow
10:53 AM 27.3 °F 12.7 °F 20.3 °F 75% 29.60 in 1.8 mi WSW 24.2 mph 33.4 mph N/A Snow Light Snow
11:13 AM 27.3 °F 12.4 °F 20.3 °F 75% 29.60 in 1.0 mi WSW 25.3 mph 34.5 mph N/A Snow Light Snow
11:33 AM 27.0 °F 11.6 °F 20.1 °F 75% 29.61 in 0.5 mi WSW 26.5 mph 34.5 mph N/A Snow Light Snow
11:53 AM 27.1 °F 12.1 °F 20.3 °F 75% 29.61 in 0.8 mi WSW 25.3 mph 33.4 mph N/A Snow Light Snow
12:13 PM 27.1 °F 12.7 °F 20.7 °F 77% 29.62 in 0.8 mi WSW 23.0 mph 29.9 mph N/A Snow Light Snow
12:33 PM 27.1 °F 12.1 °F 20.3 °F 75% 29.62 in 0.8 mi WSW 25.3 mph 29.9 mph N/A Snow Light Snow
12:53 PM 27.5 °F 12.9 °F 20.7 °F 75% 29.62 in 1.2 mi WSW 24.2 mph 29.9 mph N/A Snow Light Snow
1:13 PM 28.4 °F 14.4 °F 21.0 °F 74% 29.63 in 1.2 mi West 23.0 mph 34.5 mph N/A Snow Light Snow
1:33 PM 28.4 °F 13.8 °F 19.9 °F 71% 29.63 in 1.2 mi WSW 25.3 mph 38.0 mph N/A Snow Light Snow
1:53 PM 28.6 °F 13.8 °F 20.3 °F 71% 29.64 in 1.5 mi WSW 26.5 mph 38.0 mph N/A Snow Light Snow
2:13 PM 28.0 °F 14.6 °F 18.9 °F 68% 29.64 in 4.0 mi West 20.7 mph 36.8 mph N/A Snow Light Snow
2:33 PM 28.0 °F 13.0 °F 17.8 °F 65% 29.66 in 3.0 mi West 26.5 mph 35.7 mph N/A Snow Light Snow
2:53 PM 27.9 °F 13.4 °F 17.2 °F 64% 29.66 in 3.0 mi West 24.2 mph 39.1 mph N/A Snow Light Snow
3:13 PM 26.6 °F 12.4 °F 17.8 °F 69% 29.68 in 0.5 mi West 21.9 mph 33.4 mph N/A Snow Light Snow
3:33 PM 26.6 °F 11.7 °F 15.3 °F 62% 29.70 in 7.0 mi West 24.2 mph 32.2 mph N/A   Overcast
3:53 PM 26.1 °F 11.6 °F 17.1 °F 69% 29.71 in 1.2 mi West 21.9 mph 29.9 mph N/A Snow Light Snow
4:13 PM 25.3 °F 10.0 °F 13.6 °F 61% 29.73 in 4.0 mi West 24.2 mph 34.5 mph N/A Snow Light Snow
4:33 PM 25.0 °F 10.6 °F 13.3 °F 61% 29.75 in 10.0 mi West 20.7 mph 32.2 mph N/A   Overcast
4:53 PM 24.8 °F 10.0 °F 14.5 °F 65% 29.76 in 7.0 mi West 21.9 mph 32.2 mph N/A Snow Light Snow
5:13 PM 23.9 °F 8.4 °F 13.5 °F 64% 29.77 in 5.0 mi West 23.0 mph 33.4 mph N/A Snow Light Snow
5:33 PM 23.2 °F 7.5 °F 12.9 °F 65% 29.78 in 4.0 mi West 23.0 mph 33.4 mph N/A Snow Light Snow
5:53 PM 22.6 °F 6.8 °F 12.0 °F 64% 29.80 in 10.0 mi West 23.0 mph 28.8 mph N/A   Mostly Cloudy
6:13 PM 22.1 °F 8.9 °F 11.8 °F 65% 29.82 in 10.0 mi West 15.0 mph 25.3 mph N/A   Overcast
6:33 PM 22.1 °F 6.0 °F 11.5 °F 64% 29.83 in 10.0 mi WNW 23.0 mph 29.9 mph N/A   Overcast
7:33 PM 21.2 °F 6.8 °F 12.9 °F 70% 29.86 in 5.0 mi West 17.3 mph - N/A Snow Light Snow
7:53 PM 21.2 °F 7.3 °F 12.9 °F 70% 29.87 in 5.0 mi West 16.1 mph - N/A Snow Light Snow
8:13 PM 21.2 °F 7.3 °F 12.0 °F 68% 29.88 in 10.0 mi West 16.1 mph 28.8 mph N/A Snow Light Snow
8:53 PM 20.7 °F 7.6 °F 11.1 °F 67% 29.89 in 10.0 mi West 13.8 mph 23.0 mph N/A   Overcast
9:13 PM 20.7 °F 7.1 °F 11.1 °F 67% 29.90 in 10.0 mi West 15.0 mph 24.2 mph N/A   Overcast
9:33 PM 20.7 °F 5.3 °F 11.7 °F 68% 29.90 in 10.0 mi West 19.6 mph 24.2 mph N/A   Overcast
9:53 PM 20.3 °F 6.6 °F 11.3 °F 68% 29.91 in 10.0 mi West 15.0 mph 27.6 mph N/A   Overcast
10:13 PM 20.3 °F 6.1 °F 11.1 °F 68% 29.92 in 10.0 mi West 16.1 mph 25.3 mph N/A   Overcast
10:33 PM 20.3 °F 6.6 °F 11.3 °F 68% 29.92 in 7.0 mi West 15.0 mph 23.0 mph N/A Snow Light Snow
10:53 PM 20.3 °F 6.6 °F 11.8 °F 70% 29.92 in 7.0 mi West 15.0 mph 23.0 mph N/A Snow Light Snow
11:13 PM 20.3 °F 6.6 °F 12.2 °F 71% 29.92 in 7.0 mi West 15.0 mph 21.9 mph N/A Snow Light Snow
11:33 PM 20.3 °F 6.6 °F 12.2 °F 71% 29.92 in 10.0 mi West 15.0 mph 20.7 mph N/A   Overcast
11:53 PM 20.7 °F 5.3 °F 12.0 °F 69% 29.92 in 10.0 mi West 19.6 mph 25.3 mph N/A   Overcast